DW8046 Earlston UK current weather conditions

sailwx.info

Wind from 298 at 2 knots gusting 10

Air temperature 14.4° C
Dewpoint -41.1° C

Last reported at 2019-Aug-20 09:07 UTC.
Time now 2019-Aug-20 09:46 UTC

Location: N 55°41' W 002°40'.
View on Google Maps.

See reports from other nearby stations

  
Tides and Currents Weather Stations Pressure Air Temp Water Temp Dewpoint Dewpoint Depression Visibility Wind Speed Wind Dir Waves Ship Positions
date/time (UTC)wind fromknots sea level pressurealtimeterstation pressurevisibilityair tempwater tempwave heightnotes
2019-Aug-20 09:07 298 2 gusting 10 14.4
2019-Aug-20 08:57 293 1 gusting 11 14.4
2019-Aug-20 08:47 330 14.4
2019-Aug-20 08:37 301 13.9
2019-Aug-20 08:27 280 13.9
2019-Aug-20 08:17 285 13.9
2019-Aug-20 08:06 293 13.3
2019-Aug-20 07:56 303 13.3
2019-Aug-20 07:46 294 13.3
2019-Aug-20 07:36 281 12.8
2019-Aug-20 07:26 286 12.8
2019-Aug-20 07:17 274 12.8
2019-Aug-20 07:07 298 12.8
2019-Aug-20 06:57 299 12.2
2019-Aug-20 06:47 290 12.2
2019-Aug-20 06:37 294 12.2
2019-Aug-20 06:27 296 12.2
2019-Aug-20 06:17 295 11.7
2019-Aug-20 06:07 291 11.7
2019-Aug-20 05:57 298 11.7
2019-Aug-20 05:47 303 11.7
2019-Aug-20 05:37 293 11.7
2019-Aug-20 05:27 295 11.7
2019-Aug-20 05:17 300 11.7
2019-Aug-20 05:07 299 11.7
2019-Aug-20 04:57 293 11.7
2019-Aug-20 04:47 300 11.1
2019-Aug-20 04:37 295 11.1
2019-Aug-20 04:27 297 11.1
2019-Aug-20 04:17 304 11.1
2019-Aug-20 04:07 307 11.1
2019-Aug-20 03:57 295 11.1
2019-Aug-20 03:46 297 11.1
2019-Aug-20 03:36 296 11.1
2019-Aug-20 03:26 282 11.1
2019-Aug-20 03:16 282 11.1
2019-Aug-20 03:06 283 11.1
2019-Aug-20 02:55 297 10.6
2019-Aug-20 02:46 279 10.6
2019-Aug-20 02:36 280 10.0
2019-Aug-20 02:26 280 10.0
2019-Aug-20 02:16 280 10.6
2019-Aug-20 02:06 280 10.6
2019-Aug-20 01:56 280 11.1
2019-Aug-20 01:45 280 11.1
2019-Aug-19 23:05 284 1 gusting 12 12.8
2019-Aug-19 22:54 285 4 gusting 11 12.8
2019-Aug-19 22:44 287 12.2
2019-Aug-19 22:34 288 11.7
2019-Aug-19 22:25 304 11.7
2019-Aug-19 22:15 295 11.7
2019-Aug-19 22:04 293 11.1
2019-Aug-19 21:54 278 11.1
2019-Aug-19 21:44 300 11.7
2019-Aug-19 21:34 282 11.7
2019-Aug-19 21:24 298 11.7
2019-Aug-19 21:13 294 11.7
2019-Aug-19 21:04 300 11.7
2019-Aug-19 20:53 297 11.7
2019-Aug-19 20:43 297 11.7
2019-Aug-19 20:34 293 11.7
2019-Aug-19 20:23 305 11.7
2019-Aug-19 20:13 297 12.2
2019-Aug-19 20:03 298 12.2
2019-Aug-19 19:52 295 12.2
2019-Aug-19 19:42 291 12.8
2019-Aug-19 19:32 290 0 gusting 3 12.8
2019-Aug-19 19:22 301 1 gusting 8 13.3
2019-Aug-19 19:13 293 13.3
2019-Aug-19 19:02 298 0 13.3
2019-Aug-19 18:53 290 1 gusting 7 13.9
2019-Aug-19 18:42 290 4 gusting 17 14.4
2019-Aug-19 18:32 293 10 gusting 17 14.4
2019-Aug-19 18:22 277 3 gusting 15 15.0
2019-Aug-19 18:11 288 1 gusting 9 14.4
2019-Aug-19 18:01 293 1 gusting 9 14.4
2019-Aug-19 17:50 293 4 gusting 9 14.4
2019-Aug-19 17:41 290 7 gusting 14 15.0
2019-Aug-19 17:30 293 9 gusting 15 15.0
2019-Aug-19 17:21 291 9 gusting 15 15.6
2019-Aug-19 17:11 295 5 gusting 11 15.6
2019-Aug-19 17:01 284 8 gusting 13 16.1
2019-Aug-19 16:50 280 9 gusting 14 16.1
2019-Aug-19 16:40 274 9 gusting 20 16.7
2019-Aug-19 16:30 294 14 gusting 20 16.7
2019-Aug-19 16:20 288 13 gusting 19 16.7
2019-Aug-19 16:10 300 11 gusting 18 16.7
2019-Aug-19 16:00 277 10 gusting 19 16.7
2019-Aug-19 15:50 300 13 gusting 19 16.7
2019-Aug-19 15:40 291 12 gusting 19 17.2
2019-Aug-19 15:30 288 13 gusting 19 16.7
2019-Aug-19 15:20 294 12 gusting 18 17.2
2019-Aug-19 15:10 277 12 gusting 17 17.2
2019-Aug-19 15:00 291 11 gusting 19 17.2
2019-Aug-19 14:49 285 13 gusting 19 16.7
2019-Aug-19 14:39 271 13 gusting 19 17.2
2019-Aug-19 14:29 291 12 gusting 19 17.2
2019-Aug-19 14:19 291 9 gusting 15 16.7
2019-Aug-19 14:09 295 8 gusting 15 16.7
2019-Aug-19 13:59 290 9 gusting 17 16.1
2019-Aug-19 13:49 291 11 gusting 19 16.1
2019-Aug-19 13:39 293 12 gusting 19 16.7
2019-Aug-19 13:29 288 11 gusting 19 17.2
2019-Aug-19 13:19 293 12 gusting 18 16.7
2019-Aug-19 13:10 284 12 gusting 18 17.2
2019-Aug-19 12:59 281 11 gusting 18 17.2
2019-Aug-19 12:49 302 10 gusting 17 16.7
2019-Aug-19 12:39 291 9 gusting 15 16.1
2019-Aug-19 12:28 281 13 gusting 18 16.1
2019-Aug-19 12:18 276 13 gusting 19 16.1
2019-Aug-19 12:08 303 11 gusting 21 15.6
2019-Aug-19 11:58 289 10 gusting 21 16.1
2019-Aug-19 11:48 291 8 gusting 14 16.1
2019-Aug-19 11:38 297 7 gusting 13 16.1
2019-Aug-19 11:27 297 5 gusting 13 15.0
2019-Aug-19 11:17 293 6 gusting 19 14.4
2019-Aug-19 11:07 293 7 gusting 19 15.0
2019-Aug-19 10:57 286 6 gusting 15 15.0
2019-Aug-19 10:48 288 7 gusting 15 15.6
2019-Aug-19 10:38 291 8 gusting 15 15.6
2019-Aug-19 10:28 293 10 gusting 18 15.6
2019-Aug-19 10:18 293 12 gusting 18 15.6
2019-Aug-19 10:09 295 8 gusting 18 15.6
2019-Aug-19 09:59 297 7 gusting 15 15.0
2019-Aug-19 09:48 287 7 gusting 15 14.4
2019-Aug-19 09:37 286 7 gusting 15 15.0
2019-Aug-19 09:28 291 9 gusting 16 14.4
2019-Aug-19 09:17 307 9 gusting 16 14.4
2019-Aug-19 09:08 305 9 gusting 16 15.0
2019-Aug-19 08:57 297 8 gusting 16 15.6
2019-Aug-19 08:47 285 9 gusting 14 15.0
2019-Aug-19 08:37 294 7 gusting 15 15.0
2019-Aug-19 08:27 293 11 gusting 17 15.0
2019-Aug-19 08:17 291 9 gusting 17 15.0
2019-Aug-19 08:06 280 10 gusting 17 15.0
2019-Aug-19 07:56 289 11 gusting 18 15.0
2019-Aug-19 07:47 299 9 gusting 18 14.4
2019-Aug-19 07:36 286 7 gusting 16 14.4
2019-Aug-19 07:26 286 5 gusting 16 13.9
2019-Aug-19 07:16 285 4 gusting 13 13.9
2019-Aug-19 07:06 285 3 gusting 12 13.9
2019-Aug-19 06:56 301 7 gusting 17 13.9
2019-Aug-19 06:45 287 5 gusting 17 13.3
2019-Aug-19 06:35 291 9 gusting 16 13.3
2019-Aug-19 06:25 287 8 gusting 15 13.3
2019-Aug-19 06:14 288 9 gusting 17 12.8
2019-Aug-19 06:05 300 8 gusting 17 12.8
2019-Aug-19 05:55 280 6 gusting 14 12.8
2019-Aug-19 05:45 294 4 gusting 13 12.8
2019-Aug-19 05:34 291 3 gusting 13 12.8
2019-Aug-19 05:25 295 4 gusting 13 12.8
2019-Aug-19 05:15 291 6 gusting 13 12.8
2019-Aug-19 05:05 295 4 gusting 12 13.3
2019-Aug-19 04:55 285 2 gusting 9 12.8
2019-Aug-19 04:45 299 3 gusting 13 12.8
2019-Aug-19 04:34 288 2 gusting 13 12.8
2019-Aug-19 04:24 299 12.8
2019-Aug-19 04:14 282 1 gusting 10 12.8
2019-Aug-19 04:03 289 0 gusting 7 12.8
2019-Aug-19 03:53 281 12.8
2019-Aug-19 03:43 293 12.8
2019-Aug-19 03:33 290 12.8
2019-Aug-19 03:22 284 12.2
2019-Aug-19 03:12 274 12.2
2019-Aug-19 03:03 280 12.2
2019-Aug-19 02:53 261 12.2
2019-Aug-19 02:43 309 12.2
2019-Aug-19 02:32 287 12.2
2019-Aug-19 02:22 273 12.8
2019-Aug-19 02:11 281 12.8
2019-Aug-19 02:01 294 12.8
2019-Aug-19 01:51 276 12.8
2019-Aug-19 01:41 290 12.8
2019-Aug-19 01:31 293 12.8
2019-Aug-19 01:21 256 12.8
2019-Aug-19 01:12 256 12.8
2019-Aug-19 01:02 274 12.8
2019-Aug-19 00:51 260 12.8
2019-Aug-19 00:41 295 12.8
2019-Aug-19 00:31 301 12.8
2019-Aug-19 00:21 297 12.8
2019-Aug-19 00:11 295 12.8
2019-Aug-18 23:11 284 13.3
2019-Aug-18 23:00 294 12.8
2019-Aug-18 22:50 297 12.8
2019-Aug-18 22:39 286 12.8
2019-Aug-18 22:29 288 12.8
2019-Aug-18 22:19 302 12.8
2019-Aug-18 22:09 295 13.3
2019-Aug-18 21:59 301 13.3
2019-Aug-18 21:49 283 13.9
2019-Aug-18 21:39 278 13.9
2019-Aug-18 21:29 274 13.3
2019-Aug-18 21:19 293 13.3
2019-Aug-18 21:09 290 13.3
2019-Aug-18 20:59 287 13.9
2019-Aug-18 20:48 264 13.3
2019-Aug-18 20:38 286 13.3
2019-Aug-18 20:28 302 13.3
2019-Aug-18 20:18 293 12.8
2019-Aug-18 20:08 290 12.8
2019-Aug-18 19:57 290 12.8
2019-Aug-18 19:47 283 12.8
2019-Aug-18 19:37 281 13.3
2019-Aug-18 19:27 284 13.3
2019-Aug-18 19:17 300 13.9
2019-Aug-18 19:07 285 13.9
2019-Aug-18 18:57 281 13.9
2019-Aug-18 18:47 274 14.4
2019-Aug-18 18:36 295 1 gusting 17 14.4
2019-Aug-18 18:26 284 7 gusting 17 14.4
2019-Aug-18 18:16 280 7 gusting 14 15.0
2019-Aug-18 18:05 285 10 gusting 17 15.0
2019-Aug-18 17:55 283 10 gusting 18 15.0
2019-Aug-18 17:45 299 13 gusting 19 15.6
2019-Aug-18 17:35 290 13 gusting 21 15.6
2019-Aug-18 17:26 291 10 gusting 21 15.6
2019-Aug-18 17:16 287 12 gusting 19 16.1
2019-Aug-18 17:06 280 12 gusting 25 16.1
2019-Aug-18 16:56 291 17 gusting 25 16.1
2019-Aug-18 16:45 306 14 gusting 21 16.1
2019-Aug-18 16:35 269 15 gusting 26 16.7
2019-Aug-18 16:25 289 12 gusting 26 16.7
2019-Aug-18 16:16 293 7 gusting 16 16.7
2019-Aug-18 16:05 295 7 gusting 16 16.7
2019-Aug-18 15:55 271 8 gusting 17 16.7
2019-Aug-18 15:45 278 6 gusting 17 16.1
2019-Aug-18 15:35 291 8 gusting 17 16.1
2019-Aug-18 15:25 276 10 gusting 18 15.6
2019-Aug-18 15:15 293 9 gusting 18 15.6
2019-Aug-18 15:05 276 9 gusting 18 14.4
2019-Aug-18 14:55 251 8 gusting 17 13.9
2019-Aug-18 14:45 271 9 gusting 16 14.4
2019-Aug-18 14:34 287 6 gusting 17 15.0
2019-Aug-18 14:24 295 10 gusting 19 15.6
2019-Aug-18 14:14 264 12 gusting 24 16.7
2019-Aug-18 14:04 266 16 gusting 24 16.7
2019-Aug-18 13:54 278 9 gusting 21 17.2
2019-Aug-18 13:44 270 10 gusting 20 17.2
2019-Aug-18 13:34 284 9 gusting 19 16.7
2019-Aug-18 13:25 302 9 gusting 19 16.1
2019-Aug-18 13:14 269 8 gusting 21 16.7
2019-Aug-18 13:05 274 11 gusting 21 16.7
2019-Aug-18 12:54 284 10 gusting 19 15.6
2019-Aug-18 12:44 285 6 gusting 14 14.4
2019-Aug-18 12:34 259 7 gusting 16 13.9
2019-Aug-18 12:24 288 7 gusting 19 13.9
2019-Aug-18 12:14 291 9 gusting 19 14.4
2019-Aug-18 12:04 285 8 gusting 17 15.0
2019-Aug-18 11:54 274 8 gusting 15 15.6
2019-Aug-18 11:44 281 7 gusting 14 15.6
2019-Aug-18 11:34 270 4 gusting 14 15.6
2019-Aug-18 11:24 259 4 gusting 11 15.0
2019-Aug-18 11:14 259 1 gusting 13 13.9
2019-Aug-18 11:04 255 6 gusting 13 13.9
2019-Aug-18 10:54 261 5 gusting 13 13.9
2019-Aug-18 10:44 277 8 gusting 19 14.4
2019-Aug-18 10:34 276 8 gusting 19 14.4
2019-Aug-18 10:24 268 8 gusting 18 15.0
2019-Aug-18 10:14 273 8 gusting 19 14.4
2019-Aug-18 10:04 243 8 gusting 19 14.4
2019-Aug-18 09:54 269 6 gusting 19 14.4
2019-Aug-18 09:44 284 8 gusting 20 14.4
2019-Aug-18 09:34 301 11 gusting 20 13.9
2019-Aug-18 09:23 306 6 gusting 16 14.4
2019-Aug-18 09:13 257 9 gusting 20 14.4
2019-Aug-18 09:03 274 10 gusting 20 13.9